Regional Weather Roundup
Issued by NWS

Home | Current Version | Previous Version | Graphics & Text | Print | Product List | Glossary On
Versions: 1 2 3 4 5 6 7 8 9 10 11 12 13 14 15 16 17 18 19 20 21 22 23 24 25 26 27 28 29 30 31 32 33 34 35 36 37 38 39 40 41 42 43 44 45 46 47 48 49 50
000
ASUS43 KMKX 221300
RWRWI

WISCONSIN REGIONAL WEATHER ROUNDUP
NATIONAL WEATHER SERVICE MILWAUKEE/SULLIVAN WI
800 AM CDT FRI SEP 22 2017

NOTE: "FAIR" INDICATES FEW OR NO CLOUDS BELOW 12,000 FEET WITH NO
SIGNIFICANT WEATHER AND/OR OBSTRUCTIONS TO VISIBILITY.

WIZ001-002-006>008-014>016-023>028-221400-
NORTHWEST WISCONSIN

CITY           SKY/WX    TMP DP  RH WIND       PRES   REMARKS
SUPERIOR ARPT  LGT RAIN  65  65  99 NE8G21    29.94S
ASHLAND        CLOUDY    72  67  84 SW7       29.90R
HAYWARD        CLOUDY    71  67  87 S9        29.90R
SIREN          CLOUDY    72  69  91 SE6       29.87R
CUMBERLAND     CLOUDY    68  64  88 E3        29.91R
RICE LAKE      CLOUDY    70  67  91 E6        29.91S FOG
CHETEK         CLOUDY    70  68  95 SE7       29.91R
LADYSMITH      CLOUDY    71  68  90 S8        29.95R
EAU CLAIRE     NOT AVBL
MENOMONIE      SUNNY     71  69  93 E6        29.90S FOG
NEW RICHMOND   CLOUDY    73  67  81 SE9       29.87S
OSCEOLA        PTCLDY    74  68  81 SE7       29.88S
$$

WIZ003>005-009-010-017-018-221400-
NORTH CENTRAL WISCONSIN

CITY           SKY/WX    TMP DP  RH WIND       PRES   REMARKS
MANITOWISH WTR CLOUDY    67  67 100 S8        29.96S
ARBOR VITAE    SUNNY     72  69  90 S8        29.98R
WOODRUFF       SUNNY     72  69  90 S8        29.98R
RHINELANDER    PTSUNNY   72  69  90 SW8       30.00R
EAGLE RIVER    SUNNY     67  67  98 S3        29.99R
LAND O LAKES   SUNNY     69  66  91 S3        30.00R
PHILLIPS       CLOUDY    70  69  97 S7        29.96R
TOMAHAWK       SUNNY     66  64  94 CALM      29.99R FOG
MEDFORD        SUNNY     67  65  94 S7        29.98R
MERRILL        SUNNY     69  68  96 S3        29.99R
$$

WIZ029-030-035-036-043>047-221400-
CENTRAL WISCONSIN

CITY           SKY/WX    TMP DP  RH WIND       PRES   REMARKS
WAUSAU         MOSUNNY   70  67  90 S6        29.98R
MOSINEE        MOSUNNY   70  50  49 S10       30.00S
MARSHFIELD     SUNNY     71  66  84 S8        29.98R
STEVENS POINT  CLOUDY    69  67  94 S6        30.00S
WAUPACA        PTSUNNY   68  67  98 CALM      30.01S FOG
WAUTOMA        SUNNY     66  65  96 CALM      30.01S
WISC RAPIDS    PTSUNNY   71  67  87 S5        30.00S
CAMP DOUGLAS   NOT AVBL
$$

WIZ011>013-019>022-031-037>040-048>050-221400-
NORTHEAST WISCONSIN

CITY           SKY/WX    TMP DP  RH WIND       PRES   REMARKS
ANTIGO         PTSUNNY   66  66  99 S8        30.01F FOG
SHAWANO        MOSUNNY   70  68  95 CALM      29.99S
OCONTO         SUNNY     63  62  97 CALM      29.99F
STURGEON BAY   SUNNY     71  68  90 S8        30.04R
GREEN BAY      SUNNY     73  70  90 S8        30.00F
MANITOWOC      SUNNY     69  68  96 S5        30.03F FOG
APPLETON       MOSUNNY   70  70 100 VRB5      30.00F
CLINTONVILLE   NOT AVBL
OSHKOSH        SUNNY     72  69  90 S9        30.01F
$$

WIZ032>034-041-042-053>061-221400-
SOUTHWEST WISCONSIN

CITY           SKY/WX    TMP DP  RH WIND       PRES   REMARKS
LA CROSSE      SUNNY     78  70  76 S16       29.93R HX  80
SPARTA         SUNNY     74  67  78 W5        29.96S
VIROQUA        SUNNY     72  69  91 CALM      29.98S
BOSCOBEL       SUNNY     76  68  76 S3        29.98S
PRAIRIE DU CHI SUNNY     75  66  74 E5        29.97S
PLATTEVILLE    SUNNY     69  69 100 SE6       30.02S
$$

WIZ056-057-062-063-064-067-068-221400-
SOUTH CENTRAL WISCONSIN

CITY           SKY/WX    TMP DP  RH WIND       PRES   REMARKS
REEDSBURG      SUNNY     73  70  91 CALM      29.99S
BARABOO/DELLS  SUNNY     73  66  76 S9        30.00S
LONE ROCK      NOT AVBL
MINERAL POINT  SUNNY     70  70 100 S6        30.03S
MADISON        MOSUNNY   71  67  87 S7        30.03R
MIDDLETON      SUNNY     71  69  92 SE6       30.04R
WATERTOWN      SUNNY     70  70 100 S5        30.04S
MONROE         SUNNY     70  64  83 S8        30.04S
JANESVILLE     MOSUNNY   75  68  78 S6        30.04F
$$

WIZ051-052-058>065-066-070>072-221400-
SOUTHEAST WISCONSIN

CITY           SKY/WX    TMP DP  RH WIND       PRES   REMARKS
MILWAUKEE      MOSUNNY   75  69  81 SW6       30.05S
WAUKESHA       SUNNY     72  66  83 S5        30.07S
MILWAUKEE/TIMM SUNNY     72  66  83 S5        30.06S
RACINE         SUNNY     75  70  84 SW7       30.07S
BURLINGTON     MOSUNNY   65  65 100 CALM      30.06S FOG
KENOSHA        SUNNY     74  69  85 SW6       30.06S
FOND DU LAC    SUNNY     73  67  81 S7        30.03S
SHEBOYGAN      CLOUDY    68  68 100 S3        30.04S FOG
WEST BEND        N/A     64  64 100 CALM      30.05S FOG
JUNEAU         SUNNY     70  67  92 S7        30.05S
$$

LSZ147-162-221400-
LAKE SUPERIOR

STATION/POSITION TIME  TEMP    WIND        PRES    WAVE
                       AIR SEA DIR/SP/G            HT/PER
                 (UTC) (F)     (DEG/KT/KT) (MB)    (FT/S)
W MID LAKE BUOY  1150   62 54  200/  8/  8 1011.2F   1/ 4
DEVILS ISLAND    1200   66     130/  9/ 11 1010.7F
PORT WING        1220   61     240/  2/  5 1012.2R
SAXON HARBOR     1230   74     190/  6/ 10 1011.5R
$$

LMZ867-665-643>646-221400-
LAKE MICHIGAN

STATION/POSITION TIME  TEMP    WIND        PRES    WAVE
                       AIR SEA DIR/SP/G            HT/PER
                 (UTC) (F)     (DEG/KT/KT) (MB)    (FT/S)
S GREEN BAY BUOY 1230   70 67  170/  8/ 10 1015.6F
N MID LAKE BUOY  1150   68 66  180/ 10/ 12   N/A     1/ 3
NORTHPORT PIER   1240   70     160/  4/  8 1015.6F
KEWAUNEE LAKESHO 1230   62     180/  7/  8 1015.8F
SHEBOYGAN LAKESH 1200   69     180/  4/  4 1016.9R
PORT WASHINGTON  1230   70     260/  2/  4 1018.3S
ATWATER BUOY     1109   69 66  160/  8/ 10 1017.4R
MILWAUKEE LAKESH 1230   75     230/  6/  7   N/A
S MID LAKE BUOY  1150   71 69  220/  6/  8 1017.8R   0
KENOSHA   LAKESH 1200   75     230/  5/  7 1017.3
$$

TC  - TEMPERATURE IN CELSIUS
VSB - VISIBILITY IN STATUTE MILES
WCI - WIND CHILL INDEX
HX  - HEAT INDEX




USA.gov is the U.S. government's official web portal to all federal, state and local government web resources and services.